Notices

What's New in latest Release from April 7th, 2021:

- Updated Glossary, including Speed of Maximum Gust, and Total Hourly Precipitation

- Updated national and regional climate services offices contacts and prices information

- Addition of station inventory lists for 1981-2010, 1971-2000, and 1961-1990 Normals.

If you haven't already, please take our survey and provide feedback about our website: https://eccc.sondage-survey.ca/f/LanguageSelection.aspx?s=442ca660-fcf1-47c0-95a9-59707d6fd709

Hourly Data Report for October 30, 2006

TORONTO CITY
ONTARIO

43°40'00.000" N
79°24'00.000" W
112.50 m
6158355
71508
XTO

Download Data

Hourly Data (October 2006)
Hourly Data Report for October 30, 2006
TIME
LST
Temp Definition
°C
Dew Point Definition
°C
Rel Hum Definition
%
Precip. Amount Definition
mm

Wind Dir Definition
10's deg

Wind Spd Definition
km/h
Visibility Definition
km
Stn Press Definition
kPa
Hmdx Definition


Wind Chill Definition


Weather Definition


00:00 4.4 -0.8 69   LegendMM LegendMM   99.80     LegendNANA
01:00 4.0 -0.8 71   LegendMM LegendMM   99.85     LegendNANA
02:00 3.6 -0.8 73   LegendMM LegendMM   99.89     LegendNANA
03:00 3.2 -0.8 75   LegendMM LegendMM   99.94     LegendNANA
04:00 3.3 -0.7 75   LegendMM LegendMM   99.99     LegendNANA
05:00 3.3 -0.6 76   LegendMM LegendMM   100.07     LegendNANA
06:00 3.2 -0.5 77   LegendMM LegendMM   100.10     LegendNANA
07:00 3.3 0.0 79   LegendMM LegendMM   100.20     LegendNANA
08:00 4.6 1.7 81   LegendMM LegendMM   100.26     LegendNANA
09:00 5.8 1.6 74   LegendMM LegendMM   100.28     LegendNANA
10:00 8.0 1.9 65   LegendMM LegendMM   100.27     LegendNANA
11:00 10.3 2.5 58   LegendMM LegendMM   100.28     LegendNANA
12:00 12.0 -1.0 41   LegendMM LegendMM   100.21     LegendNANA
13:00 13.1 2.6 49   LegendMM LegendMM   100.13     LegendNANA
14:00 12.6 3.5 54   LegendMM LegendMM   100.05     LegendNANA
15:00 12.5 2.6 51   LegendMM LegendMM   100.00     LegendNANA
16:00 11.7 2.3 52   LegendMM LegendMM   99.98     LegendNANA
17:00 10.7 2.5 57   LegendMM LegendMM   99.93     LegendNANA
18:00 9.8 2.3 60   LegendMM LegendMM   99.89     LegendNANA
19:00 8.7 2.4 65   LegendMM LegendMM   99.88     LegendNANA
20:00 8.5 2.3 65   LegendMM LegendMM   99.87     LegendNANA
21:00 8.9 3.3 68   LegendMM LegendMM   99.84     LegendNANA
22:00 9.2 5.0 75   LegendMM LegendMM   99.81     LegendNANA
23:00 8.7 5.3 79   LegendMM LegendMM   99.76     LegendNANA

Notes on Data Quality.

Legend

  • E = Estimated
  • M = Missing
  • NA = Not Available*
  • [empty] = Indicates an unobserved value
Date modified: